Regional Weather Roundup
Issued by NWS

Home | Current Version | Previous Version | Text Only | Print | Product List | Glossary On
Versions: 1 2 3 4 5 6 7 8 9 10 11 12 13 14 15 16 17 18 19 20 21 22 23 24 25 26 27 28 29 30 31 32 33 34 35 36 37 38 39 40 41 42 43 44 45 46 47 48 49 50
000
ASUS43 KMPX 050001
RWRMN
WEATHER ROUNDUP FOR MINNESOTA
NATIONAL WEATHER SERVICE TWIN CITIES/CHANHASSEN MN
700 PM CDT SAT JUL 04 2015


NOTE: "FAIR" INDICATES FEW OR NO CLOUDS BELOW 12,000 FEET WITH NO
SIGNIFICANT WEATHER AND/OR OBSTRUCTIONS TO VISIBILITY. N/A MEANS
CURRENT SKY AND/OR WEATHER CONDITIONS ARE NOT AVAILABLE.

MNZ060>063-068>070-050100-
   Twin Cities Metro

CITY           SKY/WX    TMP DP  RH WIND       PRES   REMARKS
TWIN CITIES    MOSUNNY   83  64  52 S8        29.89F HAZE
6HR MIN TEMP:  81; 6HR MAX TEMP:  85;

ST PAUL        SUNNY     81  65  58 S9        29.89S HAZE
CRYSTAL        SUNNY     84  63  49 S12       29.87F HAZE
BLAINE         PTSUNNY   84  64  51 S8        29.88F
LAKEVILLE      MOSUNNY   79  64  61 S5        29.91S
EDEN PRAIRIE   SUNNY     81  65  58 S10       29.88F HAZE
6HR MIN TEMP:  80; 6HR MAX TEMP:  84;

SOUTH ST PAUL  SUNNY     82  63  52 S9        29.89F
LAKE ELMO      FAIR      81  66  61 S8        29.91S
$$
MNZ001>005-007-008-013>017-022>024-027-028-050100-
   Northwest Minnesota

CITY           SKY/WX    TMP DP  RH WIND       PRES   REMARKS
BEMIDJI        SUNNY     79  65  60 S8        29.80F HAZE
HALLOCK        SUNNY     82  68  61 S10G20    29.70R
ROSEAU         SUNNY     81  68  65 S12       29.74R HAZE
WARROAD        SUNNY     81  68  65 S9        29.74F HAZE
THIEF RVR FALL SUNNY     81  66  61 S12       29.75S
CROOKSTON      SUNNY     82  66  57 S18       29.74S
FOSSTON        SUNNY     79  64  61 S13G20    29.78F HAZE
DETROIT LAKES  SUNNY     81  64  57 S13       29.82F
MOORHEAD       SUNNY     82  66  57 S15       29.76F
PARK RAPIDS    PTSUNNY   81  66  60 S15       29.82F HAZE
MAHNOMEN       FAIR      80  66  62 S14G22    29.78F
$$
MNZ006-009>011-018-025>026-050100-
   North Central Minnesota

CITY           SKY/WX    TMP DP  RH WIND       PRES   REMARKS
BAUDETTE       SUNNY     78  62  57 S8G20     29.76F HAZE
FLAG ISLAND    SUNNY     73  66  78 S15       29.73S HAZE
INTL FALLS     SUNNY     78  58  49 VRB5      29.80F
6HR MIN TEMP:  77; 6HR MAX TEMP:  81;

WASKISH        SUNNY     79  64  61 SE5       29.78F HAZE
BIG FORK       SUNNY     79  61  53 S7        29.84F
LONGVILLE      SUNNY     79  64  61 S7        29.85F HAZE
GRAND RAPIDS   SUNNY     79  63  57 S9        29.86F
CRANE LAKE     SUNNY     79  55  44 S5        29.85F
ORR            SUNNY     79  55  44 S5        29.82F
COOK           SUNNY     79  59  50 S5        29.86F
WALKER         FAIR      79  64  60 S7        29.83F HAZE
$$
MNZ012-019>021-037-050100-
   Northeast Minnesota

CITY           SKY/WX    TMP DP  RH WIND       PRES   REMARKS
DULUTH         SUNNY     70  58  65 SE9       29.91F
6HR MIN TEMP:  70; 6HR MAX TEMP:  76;

ELY            SUNNY     77  52  41 S7        29.89S
HIBBING        SUNNY     78  58  49 S7        29.86F
DULUTH HARBOR  SUNNY     64  59  82 NE12      29.92S
TWO HARBORS    SUNNY     73  61  64 E9        29.90F
SILVER BAY     SUNNY     66  55  68 E7        29.92S
GRAND MARAIS     N/A     54  50  86 E8        29.94F
G MARAIS ARPRT MOSUNNY   64  50  59 SE5       29.97F
$$
MNZ029>031-032-039>041-046>048-054>057-064-050100-
   West Central Minnesota

CITY           SKY/WX    TMP DP  RH WIND       PRES   REMARKS
FERGUS FALLS   SUNNY     81  64  57 S14       29.80F
WHEATON        SUNNY     81  64  57 SE15      29.81F
MORRIS         SUNNY     82  64  54 S14       29.83S
ALEXANDRIA     SUNNY     80  66  62 S14G21    29.87F
ELBOW LAKE     FAIR      80  65  60 S12       29.82F
WADENA         SUNNY     81  64  57 S10       29.84F
GLENWOOD       SUNNY     81  66  61 S14       29.87F
APPLETON       SUNNY     84  63  48 S7        29.83F
BENSON         SUNNY     81  64  57 S8        29.85S
ORTONVILLE     SUNNY     82  64  54 S6        29.82F
MADISON        SUNNY     81  63  54 S8        29.84S
WILLMAR          N/A     81  66  61 S3        29.88F
$$
MNZ033>034-036-042>043-049>051-058-059-050100-
   Central Minnesota

CITY           SKY/WX    TMP DP  RH WIND       PRES   REMARKS
ST CLOUD       SUNNY     82  66  58 S10       29.87F
6HR MIN TEMP:  81; 6HR MAX TEMP:  85;

SAUK CENTRE    FAIR      79  67  66 S6        29.87F
PAYNESVILLE    SUNNY     77  65  65 SE6       29.88F
AITKIN         SUNNY     79  66  65 S5        29.86F HAZE
PINE RIVER       N/A     81  64  57 S8        29.88F HAZE
BRAINERD       CLOUDY    81  64  56 SE8       29.86F HAZE
STAPLES        SUNNY     81  64  57 S8        29.85F
LONG PRAIRIE   FAIR      77  66  69 S10       29.88S
LITTLE FALLS   SUNNY     81  63  54 S6        29.86F
LITCHFIELD     SUNNY     81  68  65 S3        29.89F
BUFFALO        SUNNY     82  65  57 S7        29.89S
MAPLE LAKE     SUNNY     81  68  65 S6        29.89F
$$
MNZ037-044-045-052-053-050100-
   East Central Minnesota

CITY           SKY/WX    TMP DP  RH WIND       PRES   REMARKS
PRINCETON      PTSUNNY   82  68  61 S7        29.88S
MORA           SUNNY     79  63  57 S3        29.90S HAZE
CAMBRIDGE      SUNNY     84  66  54 SW5       29.86F
RUSH CITY      SUNNY     80  66  62 SE6       29.89S
MOOSE LAKE     SUNNY     79  61  53 S3        29.87F HAZE
HINCKLEY       FAIR      81  64  57 S6        29.89S HAZE
CLOQUET        SUNNY     70  57  64 E8        29.91S
MCGREGOR       SUNNY     79  63  57 SE6       29.88F
$$
MNZ071>073-080-081-089-090-097-098-050100-
   Southwest Minnesota

CITY           SKY/WX    TMP DP  RH WIND       PRES   REMARKS
MONTEVIDEO     SUNNY     82  66  57 S8        29.85F
GRANITE FALLS  SUNNY     81  63  54 SE12      29.87F
CANBY          SUNNY     80  62  53 S8        29.86F
MARSHALL       SUNNY     81  61  50 S9          N/A
REDWOOD FALLS  SUNNY     82  64  54 S13       29.87F HAZE
OLIVIA         MOSUNNY   79  61  53 S8        29.87F
PIPESTONE      SUNNY     79  63  57 SW15      29.90S
WINDOM         SUNNY     79  61  53 S9        29.91S
WORTHINGTON    SUNNY     79  61  53 S13G18    29.91F
JACKSON        SUNNY     81  61  50 S9        29.92F
TRACY          SUNNY     81  63  54 S9        29.88F
SLAYTON        SUNNY     79  62  55 S13       29.91F
$$
MNZ065>067-074>077-082>085-091>093-050100-
   South Central Minnesota

CITY           SKY/WX    TMP DP  RH WIND       PRES   REMARKS
MANKATO        SUNNY     79  63  57 S7        29.91F
NEW ULM        MOSUNNY   79  64  61 S8        29.89F
ST JAMES       MOSUNNY   81  64  57 SE10      29.91F
FAIRMONT       MOSUNNY   79  59  50 S12       29.92S
GLENCOE        MOSUNNY   81  67  62 S6        29.90S
FARIBAULT      SUNNY     79  64  61 S6        29.93S
OWATONNA       SUNNY     79  61  53 S8        29.93F
WASECA         SUNNY     77  63  61 S5        29.94S
ALBERT LEA     SUNNY     79  57  47 S8        29.94F
$$
MNZ078>079-086>088-094>096-050100-
   Southeast Minnesota

CITY           SKY/WX    TMP DP  RH WIND       PRES   REMARKS
ROCHESTER      SUNNY     78  62  57 S9        29.96F
6HR MIN TEMP:  78; 6HR MAX TEMP:  82;

RED WING       MOSUNNY   82  64  54 S6        29.89F HAZE
DODGE CENTER   SUNNY     77  63  61 S7        29.95F
WINONA         SUNNY     79  63  57 S3        29.93S
AUSTIN         SUNNY     79  61  53 S7        29.95F
PRESTON        SUNNY     76  62  61 SW6       29.98S
$$
ABBREVIATIONS USED IN REMARKS
   TC - TEMPERATURES IN CELSIUS
  WCI - WIND CHILL INDEX
   HX - HEAT INDEX
  VSB - VISIBILITY
$$


USA.gov is the U.S. government's official web portal to all federal, state and local government web resources and services.